Flag for Canada Weather past 2 weeks in Fredericton, New Brunswick, Canada

Now
45 °F

Scattered clouds.


Feels Like: 38 °F
Forecast: 31 / 37 °F
Wind: 14 mph from West

Location: Fredericton

Current Time: Dec 26, 2014 at 11:45:13 AM

Latest Report: Dec 26, 2014 at 11:00 AM


Visibility: 9 mi

Pressure: 29.82 "Hg

Humidity: 42%

Dew point: 23 °F

Location of FrederictonLocation

Historic Weather in Fredericton — Graph

°F

Fredericton temperature yesterday

Maximum temperature yesterday: 54 °F (at 5:59 AM)
Minimum temperature yesterday: 34 °F (at 12:00 AM)
Average temperature yesterday: 46 °F

Past Weeks' High & Low Weather Summary

 TemperatureHumidityPressure
High54 °F (Dec 25, 5:59 AM)100% (Dec 11, 11:00 AM)30.49 "Hg (Dec 11, 11:00 AM)
Low19 °F (Dec 20, 1:00 AM)42% (Dec 26, 11:00 AM)29.25 "Hg (Dec 25, 2:00 PM)
Average32 °F92%29.94 "Hg
* Reported Dec 11 11:00 AM — Dec 26 11:00 AM, Fredericton, Weather by CustomWeather, © 2014

Note: Actual official high and low records may vary slightly from our data, if they occured in-between our weather recording intervals... More about our weather records

Advertising

Fredericton weather history for previous 24 hours

 ConditionsComfort  
Time TempWeatherWind HumidityBarometerVisibility
11:00 AM
Dec 26
45 °FScattered clouds.14 mph42%29.82 "Hg9 mi
10:00 AM41 °FSunny.14 mph57%29.79 "Hg9 mi
9:00 AM37 °FSunny.10 mph65%29.77 "Hg9 mi
8:00 AM37 °FClear.9 mph65%29.73 "Hg9 mi
7:00 AM36 °FPassing clouds.13 mph70%29.71 "Hg9 mi
6:00 AM37 °FPassing clouds.9 mph65%29.71 "Hg9 mi
5:55 AM36 °FPassing clouds.12 mph70%29.70 "Hg9 mi
5:00 AM37 °FPassing clouds.12 mph60%29.70 "Hg9 mi
4:00 AM39 °FClear.15 mph56%29.67 "Hg9 mi
3:00 AM39 °FPassing clouds.17 mph56%29.64 "Hg9 mi
2:00 AM41 °FOvercast.16 mph57%29.62 "Hg9 mi
1:00 AM41 °FOvercast.17 mph57%29.58 "Hg9 mi
12:00 AM41 °FOvercast.16 mph66%29.54 "Hg9 mi
11:00 PM
Dec 25
41 °FOvercast.16 mph70%29.53 "Hg9 mi
10:00 PM41 °FPassing clouds.18 mph70%29.49 "Hg9 mi
9:00 PM39 °FPassing clouds.15 mph81%29.47 "Hg9 mi
8:00 PM41 °FClear.16 mph81%29.44 "Hg9 mi
7:00 PM41 °FClear.12 mph87%29.43 "Hg9 mi
6:00 PM41 °FOvercast.7 mph93%29.40 "Hg9 mi
5:00 PM41 °FPassing clouds.8 mph87%29.37 "Hg9 mi
4:00 PM45 °FPartly sunny.15 mph87%29.35 "Hg9 mi
3:00 PM48 °FLight rain. Cloudy.13 mph94%29.30 "Hg9 mi
2:00 PM52 °FLight rain. Cloudy.15 mph100%29.25 "Hg9 mi
1:00 PM52 °FLight rain. Fog.12 mph100%29.28 "Hg3 mi
12:56 PM52 °FLight rain. Fog.12 mph100%29.28 "Hg3 mi
12:02 PM52 °FLight rain. Fog.9 mph100%29.30 "Hg2 mi
11:00 AM52 °FLight rain. Fog.7 mph100%29.36 "Hg1 mi
Weather by CustomWeather, © 2014

See weather overviewHow to use our weather pages